[keps] VEGA Launch CubeSat KEPS for 3-1-12
Ray Hoad
ray.hoad at mypbmail.com
Thu Mar 1 18:49:18 PST 2012
Here are the VEGA CubeSat KEPs for this week. Any ideas what Objects D, E, G, and H are?
ALMASAT1
1 38078U 12006B 12060.79838444 .00016529 00000-0 48219-3 0 00251
2 38078 069.4880 202.0216 0774588 023.8640 339.6607 14.04878522002308
MO-72
1 38079U 12006C 12061.35179509 .00035286 00000-0 92406-3 0 466
2 38079 069.4884 200.6838 0776899 023.2549 340.1956 14.06494013 2378
OBJECT D
1 38080U 12006D 12060.71409786 .00029292 00000-0 75489-3 0 462
2 38080 069.4884 202.1375 0779837 023.8459 339.6804 14.06220860 2286
OBJECT E
1 38081U 12006E 12061.35439652 .00034449 00000-0 90760-3 0 480
2 38081 069.4874 200.6892 0777369 023.1134 340.3076 14.06273442 2378
XATCOBEO
1 38082U 12006F 12061.42574915 .00040456 00000-0 10774-2 0 516
2 38082 069.4868 200.5262 0775900 023.0046 340.3933 14.06343673 2389
OBJECT G
1 38083U 12006G 12061.42531104 .00038216 00000-0 10132-2 0 519
2 38083 069.4850 200.5270 0776335 023.0967 340.3048 14.06350230 2389
OBJECT H
1 38084U 12006H 12061.35614143 .00032541 00000-0 87108-3 0 442
2 38084 069.4879 200.6907 0776730 023.1348 340.2929 14.06090975 2375
GOLIAT
1 38085U 12006J 12061.35623474 .00032497 00000-0 86900-3 0 449
2 38085 069.4871 200.6912 0776826 023.1286 340.3010 14.06092105 2370
More information about the Keps
mailing list